GALILEO 31 (10D)

导读

GALILEO 31 (10D)是欧洲空间局(ESA)于2024年9月17日发射的伽利略系统卫星。作为欧洲自主全球卫星导航系统的新增组网卫星,它将提升伽利略系统全球覆盖精度与服务稳定性,增强欧洲在全球导航领域的自主能力,为全球用户提供更可靠的定位、导航与授时服务,进一步完善伽利略系统的星座布局。

Basic Information
目录编号:
61183
目录名称:
GALILEO 31 (10D)
国际标识:
2024-167B
轨道中心:
EARTH
卫星名称:
GALILEO 31 (10D)
卫星全名:
GALILEO 31 (10D)
卫星状态:
在轨 (已飞行724 天)
发射日期:
2024-09-17 UTC
国别 :
(ESA)
星等 :
--
This satellite is enrolled in the Space Conjunction Data Service (SCDS) and the current flight risk assessment level is: No High Risk
Orbit Information
数据来源 国际轨道数据 AOE轨道数据
星历时间 2026-09-11T08:28:46+0800
14小时前
查看轨道信息
2026-09-10T05:00:00+0800
1天前
查看轨道信息
半长轴 29600.378km 29600.425km
偏心率 0.0002553 0.0002537
轨道倾角 55.165° 55.165°
近地点辐角 246.947° 245.979°
升交点赤经 218.967° 218.998°
平近点角 290.666° 308.936°
近地点 23214.684km 23214.778km
远地点 23229.798km 23229.798km
周期 844.706分钟 844.708分钟
每日圈数 1.704735 1.704731
Detailed Information
使用方式:
暂无
2D Orbit Map
3D Orbit Map
Orbit Altitude Analysis Chart
Orbit Inclination Analysis Chart
Orbit Comprehensive Analysis Chart
View Comprehensive Chart
Miss Distance Evolution Trend with All Objects
Collision Probability Evolution Trend with All Objects